K8EMA-4 Weather Reports


time (UTC)temp
C
wind
direction
speed
KPH
gust
KPH
rain 1hr
cm
rain 24hr
cm
rain mn
cm
humidity
%
barometer
mb
20260504184127 24 195 24.1 30.6 0.00 0.00 0.00 100
20260504183627 24 219 14.5 38.6 0.00 0.00 0.00 100
20260504183127 23 279 29.0 38.6 0.00 0.00 0.00 100
20260504182627 24 292 20.9 32.2 0.00 0.00 0.00 100
20260504182127 26 237 14.5 32.2 0.00 0.00 0.00 100
20260504181627 26 244 17.7 32.2 0.00 0.00 0.00 100
20260504181127 26 286 20.9 30.6 0.00 0.00 0.00 100
20260504180627 26 225 19.3 27.4 0.00 0.00 0.00 100
20260504180127 25 239 17.7 30.6 0.00 0.00 0.00 100
20260504175627 26 222 16.1 35.4 0.00 0.00 0.00 100
20260504175127 26 250 19.3 20.9 0.00 0.00 0.00 100
20260504174627 25 239 12.9 30.6 0.00 0.00 0.00 100
20260504174129 25 217 19.3 35.4 0.00 0.00 0.00 100
20260504173627 26 212 16.1 27.4 0.00 0.00 0.00 100
20260504173214 25 230 14.5 37.0 0.00 0.00 0.00 100
20260504173127 25 230 14.5 37.0 0.00 0.00 0.00 100
20260504172627 25 248 9.7 29.0 0.00 0.00 0.00 100
20260504172127 25 212 29.0 33.8 0.00 0.00 0.00 100
20260504171629 24 275 20.9 33.8 0.00 0.00 0.00 100
20260504171129 24 279 20.9 43.5 0.00 0.00 0.00 100
20260504170627 25 295 20.9 30.6 0.00 0.00 0.00 100
20260504170127 25 248 16.1 33.8 0.00 0.00 0.00 100
20260504160127 23 206 11.3 25.7 0.00 0.00 0.00 100
20260504151127 19 285 9.7 17.7 0.00 0.00 0.00 100
20260504150628 18 244 8.0 20.9 0.00 0.00 0.00 100
20260504150127 18 213 11.3 24.1 0.00 0.00 0.00 100
20260504141129 21 222 11.3 19.3 0.00 0.00 0.00 100
20260504140627 21 286 11.3 24.1 0.00 0.00 0.00 100
20260504140127 21 225 12.9 25.7 0.00 0.00 0.00 100
20260504130627 20 203 9.7 16.1 0.00 0.00 0.00 100
20260504130127 20 202 1.6 14.5 0.00 0.00 0.00 100
20260504120318 15 199 11.3 17.7 0.00 0.05 0.00 100
20260504110318 9 170 6.4 19.3 0.00 0.05 0.00 100
20260504100318 8 234 8.0 14.5 0.00 0.05 0.00 100
20260504081818 8 227 9.7 14.5 0.00 0.05 0.00 100
20260504081318 9 225 4.8 20.9 0.00 0.05 0.00 100
20260504080818 9 210 12.9 17.7 0.00 0.05 0.00 100
20260504080318 9 250 6.4 16.1 0.00 0.05 0.00 100
20260504070318 9 239 8.0 11.3 0.00 0.05 0.00 100
20260504050319 10 222 3.2 12.9 0.00 0.05 0.00 100
20260504045819 10 243 3.2 14.5 0.00 0.05 0.00 100
20260504045319 10 205 1.6 12.9 0.00 0.05 0.00 100
20260504044819 10 196 9.7 11.3 0.00 0.05 0.00 100
20260504044319 10 161 1.6 9.7 0.00 0.05 0.00 100
20260504043819 10 226 4.8 14.5 0.00 0.05 0.00 100
20260504043319 10 196 6.4 16.1 0.00 0.05 0.00 100
20260504042819 10 142 9.7 9.7 0.00 0.05 0.00 100
20260504042319 10 227 4.8 11.3 0.00 0.05 0.00 100
20260504041822 10 174 6.4 17.7 0.00 0.05 0.00 100
20260504041321 10 220 6.4 12.9 0.00 0.05 0.00 100
20260504040819 10 205 9.7 14.5 0.00 0.05 0.00 100
20260504040319 10 202 8.0 14.5 0.00 0.05 0.00 100
20260504035819 10 209 8.0 16.1 0.00 0.05 0.05 100
20260504035319 10 232 6.4 14.5 0.00 0.05 0.05 100
20260504034819 10 185 6.4 19.3 0.00 0.05 0.05 100
20260504034319 10 174 8.0 14.5 0.00 0.05 0.05 100
20260504033819 10 192 11.3 14.5 0.00 0.05 0.05 100
20260504033319 10 153 11.3 12.9 0.00 0.05 0.05 100
20260504032819 10 180 0.0 9.7 0.00 0.05 0.05 100
20260504032319 10 198 0.0 8.0 0.00 0.05 0.05 100
20260504031820 10 120 0.0 11.3 0.00 0.05 0.05 100
20260504031319 10 244 0.0 11.3 0.00 0.05 0.05 100
20260504030819 10 165 3.2 12.9 0.00 0.05 0.05 100
20260504030319 10 192 8.0 14.5 0.00 0.05 0.05 100
20260504025819 10 192 3.2 11.3 0.00 0.05 0.05 100
20260504025320 10 181 6.4 11.3 0.00 0.05 0.05 100
20260504024820 10 225 6.4 14.5 0.00 0.05 0.05 100
20260504024319 10 230 3.2 12.9 0.00 0.05 0.05 100
20260504023819 10 178 4.8 12.9 0.00 0.05 0.05 100
20260504023319 9 209 4.8 16.1 0.00 0.05 0.05 100
20260504022819 9 205 12.9 12.9 0.00 0.05 0.05 100
20260504022319 9 222 3.2 9.7 0.00 0.05 0.05 100
20260504021819 9 199 6.4 11.3 0.00 0.05 0.05 100
20260504021324 9 196 6.4 12.9 0.00 0.05 0.05 100
20260504020819 9 230 8.0 14.5 0.00 0.05 0.05 100
20260504020319 9 196 4.8 12.9 0.00 0.05 0.05 100
20260504015819 9 178 9.7 12.9 0.00 0.05 0.05 100
20260504015319 9 220 9.7 12.9 0.00 0.05 0.05 100
20260504014819 9 174 8.0 16.1 0.00 0.05 0.05 100
20260504014320 8 174 4.8 14.5 0.00 0.05 0.05 100
20260504013820 8 227 4.8 8.0 0.00 0.05 0.05 100
20260504013319 8 209 1.6 9.7 0.00 0.05 0.05 100
20260504012819 8 185 3.2 9.7 0.00 0.05 0.05 100
20260504012320 8 180 6.4 11.3 0.00 0.05 0.05 100
20260504011825 8 267 6.4 8.0 0.00 0.05 0.05 100
20260504011320 8 140 4.8 8.0 0.00 0.05 0.05 100
20260504010819 8 271 1.6 8.0 0.00 0.05 0.05 100
20260504010319 8 246 0.0 9.7 0.00 0.05 0.05 100
20260504005819 8 220 0.0 6.4 0.00 0.05 0.05 100
20260504005319 8 150 1.6 9.7 0.00 0.05 0.05 100
20260504004822 8 192 4.8 9.7 0.00 0.05 0.05 100
20260504004319 8 206 3.2 11.3 0.00 0.05 0.05 100
20260504003823 8 198 9.7 12.9 0.00 0.05 0.05 100
20260504003319 8 201 4.8 11.3 0.00 0.05 0.05 100
20260504002819 8 229 9.7 12.9 0.00 0.05 0.05 100
20260504002322 8 150 3.2 9.7 0.00 0.05 0.05 100
20260504001819 8 105 0.0 9.7 0.00 0.05 0.05 100
20260504001321 8 215 6.4 8.0 0.00 0.05 0.05 100
20260504000819 8 111 1.6 11.3 0.00 0.05 0.05 100
20260504000319 8 157 1.6 8.0 0.00 0.05 0.05 100
20260503235819 8 130 0.0 8.0 0.00 0.05 0.05 100
20260503235319 8 109 0.0 8.0 0.00 0.05 0.05 100
20260503234824 8 191 4.8 9.7 0.00 0.05 0.05 100
20260503234319 8 180 3.2 11.3 0.00 0.05 0.05 100
20260503233819 8 106 4.8 11.3 0.00 0.05 0.05 100
20260503233320 8 112 6.4 6.4 0.00 0.05 0.05 100
20260503232820 8 132 1.6 9.7 0.00 0.05 0.05 100
20260503232319 8 104 9.7 9.7 0.00 0.05 0.05 100
20260503231819 8 123 4.8 12.9 0.00 0.05 0.05 100
20260503231319 8 160 3.2 11.3 0.00 0.05 0.05 100
20260503230819 8 130 3.2 8.0 0.03 0.05 0.05 100
20260503230320 8 157 1.6 9.7 0.03 0.05 0.05 100
20260503225819 8 123 6.4 11.3 0.05 0.05 0.05 100
20260503225319 8 90 4.8 6.4 0.05 0.05 0.05 100
20260503224820 8 199 4.8 8.0 0.05 0.05 0.05 100
20260503224319 8 118 3.2 8.0 0.05 0.05 0.05 100
20260503223819 8 130 4.8 8.0 0.05 0.05 0.05 100
20260503223321 7 102 3.2 11.3 0.05 0.05 0.05 100
20260503222819 7 68 4.8 8.0 0.05 0.05 0.05 100
20260503222320 7 137 6.4 9.7 0.05 0.05 0.05 100
20260503221819 7 161 4.8 8.0 0.05 0.05 0.05 100
20260503221319 7 177 6.4 8.0 0.05 0.05 0.05 100
20260503220819 7 244 6.4 11.3 0.03 0.03 0.03 100
20260503220319 8 248 6.4 16.1 0.03 0.03 0.03 100
20260503215819 8 264 9.7 25.7 0.00 0.00 0.00 100
20260503215319 8 261 17.7 22.5 0.00 0.00 0.00 100
20260503214819 8 277 11.3 27.4 0.00 0.00 0.00 100
20260503214319 10 324 22.5 32.2 0.00 0.00 0.00 100
20260503213823 10 247 24.1 37.0 0.00 0.00 0.00 100
20260503213319 10 240 24.1 41.8 0.00 0.00 0.00 100
20260503212819 11 284 22.5 41.8 0.00 0.00 0.00 100
20260503212319 11 257 27.4 45.1 0.00 0.00 0.00 100
20260503211819 12 312 12.9 43.5 0.00 0.00 0.00 100
20260503211319 12 233 19.3 53.1 0.00 0.00 0.00 100
20260503210819 12 267 38.6 48.3 0.00 0.00 0.00 100
20260503210319 14 239 32.2 35.4 0.00 0.00 0.00 100
20260503205819 15 227 19.3 35.4 0.00 0.00 0.00 100
20260503205320 16 278 12.9 27.4 0.00 0.00 0.00 100
20260503204820 16 255 14.5 25.7 0.00 0.00 0.00 100
20260503204321 15 254 17.7 35.4 0.00 0.00 0.00 100
20260503203820 15 264 24.1 33.8 0.00 0.00 0.00 100
20260503203320 15 234 16.1 40.2 0.00 0.00 0.00 100
20260503202820 16 258 16.1 35.4 0.00 0.00 0.00 100
20260503202320 16 255 12.9 33.8 0.00 0.00 0.00 100
20260503201820 16 272 22.5 35.4 0.00 0.00 0.00 100
20260503201320 17 192 17.7 29.0 0.00 0.00 0.00 100
20260503200820 16 230 8.0 24.1 0.00 0.00 0.00 100
20260503200320 17 250 14.5 29.0 0.00 0.00 0.00 100
20260503195820 17 250 25.7 29.0 0.00 0.00 0.00 100
20260503195320 18 281 17.7 25.7 0.00 0.00 0.00 100
20260503194820 18 243 17.7 30.6 0.00 0.00 0.00 100
20260503194320 17 230 12.9 27.4 0.00 0.00 0.00 100
20260503193820 18 267 19.3 19.3 0.00 0.00 0.00 100
20260503193320 17 262 9.7 25.7 0.00 0.00 0.00 100
20260503192820 17 209 24.1 33.8 0.00 0.00 0.00 100
20260503192320 17 241 20.9 30.6 0.00 0.00 0.00 100
20260503191820 18 299 17.7 25.7 0.00 0.00 0.00 100
20260503191320 18 261 17.7 24.1 0.00 0.00 0.00 100
20260503190820 17 247 12.9 29.0 0.00 0.00 0.00 100
20260503190320 18 285 11.3 38.6 0.00 0.00 0.00 100
20260503185820 18 270 19.3 24.1 0.00 0.00 0.00 100
20260503185320 18 236 12.9 24.1 0.00 0.00 0.00 100
20260503184820 18 210 8.0 40.2 0.00 0.00 0.00 100